Dewpoint
-7 -6 -7 -6 -6 -6 -7 -8 -8 -7 -7 -7 -7 -7 -8 -8 -8 -7 -4 -1 0 0 0 1 3 5 6 6 5 3 2 3 4 6 8 8 9 9 10 10 8 7
-6 -7 -7 -6 -6 -6 -6 -7 -7 -7 -7 -7 -7 -7 -7 -7 -8 -8 -8 -6 -3 -0 1 1 1 4 5 6 6 6 5 3 2 3 5 7 8 8 8 9 8 7
-6 -6 -6 -6 -6 -6 -6 -7 -7 -7 -7 -7 -7 -7 -7 -7 -7 -8 -7 -7 -6 -3 -0 1 1 3 4 5 6 7 7 6 5 3 3 4 6 7 7 7 7 8
-6 -6 -6 -5 -5 -5 -6 -6 -6 -7 -6 -7 -7 -8 -8 -8 -6 -6 -6 -6 -6 -5 -2 0 1 2 3 4 6 7 7 7 7 6 4 4 5 6 7 7 7 8
-5 -6 -6 -5 -5 -6 -6 -6 -6 -6 -7 -7 -7 -8 -8 -6 -3 -3 -3 -3 -3 -3 -2 -1 1 2 2 4 5 6 7 7 7 7 7 5 4 5 6 6 7 8
-5 -5 -6 -5 -6 -6 -6 -7 -6 -5 -5 -4 -3 -4 -5 -4 -2 -1 -1 -1 -1 -0 0 0 1 2 2 3 4 5 6 7 7 7 7 6 5 5 5 5 6 7
-5 -5 -5 -5 -6 -6 -7 -6 -3 -1 -1 -1 -1 -1 -2 -2 -1 -0 0 -0 -0 0 1 2 2 2 3 3 4 5 6 6 7 7 7 7 6 6 5 6 6 6
-4 -4 -5 -6 -6 -7 -7 -4 -1 1 1 0 0 -0 -0 -1 -1 -0 1 0 0 1 1 2 2 3 3 3 4 4 5 6 6 7 7 7 7 6 6 6 6 5
-4 -5 -6 -6 -7 -8 -5 -2 1 1 1 1 1 1 0 -0 -1 -0 0 1 1 1 1 2 2 2 3 3 3 4 4 5 6 6 7 7 7 7 6 6 7 6
-4 -5 -6 -6 -7 -5 -1 1 1 1 1 1 1 1 1 1 0 0 1 1 1 1 1 1 2 2 2 3 3 4 4 5 5 6 6 7 7 7 7 6 6 7
-5 -6 -6 -6 -5 -2 1 2 1 1 1 1 1 1 1 1 1 1 0 1 1 1 1 1 1 2 2 2 3 3 4 4 5 5 6 6 7 7 7 7 7 7
-6 -5 -6 -4 -1 0 1 1 1 1 1 1 1 1 1 1 1 0 0 0 0 0 0 1 1 1 2 2 2 3 3 4 4 4 5 5 6 6 7 7 7 7
-5 -5 -4 -2 0 1 1 1 1 1 1 1 1 1 1 1 1 0 0 0 0 0 0 1 1 1 1 2 2 3 3 3 3 4 4 5 5 6 7 7 7 7
-4 -3 -2 -0 1 1 1 1 1 1 1 1 1 1 1 0 0 0 0 -0 0 0 0 0 0 0 1 1 2 2 3 3 3 3 3 4 5 6 7 7 7 7
-3 -2 -1 0 1 1 1 1 0 1 1 1 1 0 0 0 0 -0 -0 -0 -0 -0 -0 0 -0 0 0 1 1 2 2 2 2 3 3 3 4 6 6 7 7 7
-3 -1 -0 0 1 1 1 0 0 0 0 0 1 0 0 0 0 -0 -0 -0 -1 -1 -1 -0 -0 0 0 0 1 1 1 1 2 2 2 3 4 5 6 6 7 7
-2 -0 0 1 1 1 0 0 0 0 0 0 0 0 0 0 -0 -0 -0 -1 -1 -1 -1 -1 -1 -0 -0 -0 -0 -0 0 0 1 1 2 2 3 5 6 6 7 7
-1 -0 1 1 1 0 0 0 0 0 0 0 -0 -0 -0 -0 -0 -1 -1 -1 -1 -1 -1 -1 -1 -1 -1 -1 -0 -0 -0 -0 0 1 2 3 3 5 6 6 6 7
-0 0 0 0 0 0 -0 -0 -0 -0 -0 -1 -1 -1 -1 -1 -1 -1 -1 -1 -1 -1 -1 -1 -1 -1 -1 -1 -1 -1 -0 -0 -0 0 1 2 3 4 6 6 6 7
-0 -0 -0 0 0 -0 -1 -1 -1 -1 -1 -1 -2 -1 -1 -2 -2 -2 -1 -1 -1 -1 -1 -1 -1 -1 -1 -1 -1 -1 -1 -1 -1 -0 -0 1 2 3 5 6 7 7
-1 -1 -1 -0 -0 -1 -1 -1 -1 -1 -1 -2 -2 -2 -2 -2 -2 -2 -2 -2 -2 -2 -2 -2 -2 -2 -1 -1 -1 -1 -1 -1 -1 -1 -0 0 1 2 3 5 6 7
-1 -1 -1 -1 -1 -1 -2 -1 -1 -1 -1 -2 -2 -2 -2 -2 -2 -2 -2 -2 -2 -2 -2 -2 -2 -2 -2 -1 -1 -1 -1 -1 -1 -1 -0 0 1 2 2 4 6 7
-1 -2 -1 -1 -2 -2 -1 -1 -1 -1 -1 -2 -2 -2 -2 -2 -2 -3 -2 -2 -2 -2 -2 -2 -2 -1 -1 -1 -1 -1 -1 -1 -1 -0 -0 0 1 2 2 3 5 6
-2 -2 -2 -2 -2 -2 -1 -1 -1 -1 -1 -2 -2 -2 -2 -2 -3 -3 -3 -3 -3 -3 -3 -2 -2 -1 -1 -1 -1 -1 -1 -0 -0 -0 0 0 1 2 2 3 4 6
-2 -2 -2 -2 -2 -2 -2 -2 -2 -2 -2 -2 -2 -2 -2 -3 -3 -3 -3 -3 -3 -3 -3 -2 -2 -2 -1 -1 -1 -1 -1 -0 -0 -0 0 1 1 2 3 3 4 5
-2 -2 -2 -2 -2 -1 -2 -3 -2 -2 -2 -2 -3 -3 -3 -3 -3 -3 -3 -3 -3 -3 -3 -2 -2 -2 -1 -1 -1 -1 -1 -0 -0 0 0 1 2 3 3 4 4 5
Wind_Speed
16 14 13 12 12 12 12 13 14 15 18 20 22 24 25 26 25 23 21 20 20 20 19 19 18 16 15 17 20 25 31 35 35 33 32 33 35 37 38 39 43 45
16 14 14 13 13 14 14 15 15 17 18 20 22 24 26 29 29 27 25 24 23 22 22 21 20 18 16 16 16 19 24 30 37 37 35 34 35 36 37 38 41 45
16 15 14 15 15 17 17 18 18 19 21 22 23 25 27 29 30 30 28 26 25 25 24 23 22 20 19 18 16 17 19 22 29 35 38 37 35 35 38 40 41 42
16 16 16 17 18 19 20 21 22 22 23 24 25 26 28 29 29 28 27 26 26 26 26 25 24 24 22 20 18 18 18 19 21 26 34 38 37 35 35 38 41 41
16 16 17 18 20 22 23 24 25 25 26 27 26 27 27 26 25 24 24 24 25 26 27 26 26 25 24 23 23 21 20 20 19 20 27 35 39 37 35 35 38 40
16 17 19 21 22 24 25 26 26 26 26 25 23 23 23 21 21 22 22 23 24 25 25 26 26 25 25 24 25 24 22 21 20 19 23 29 35 38 37 36 37 39
18 19 20 22 24 25 27 27 23 21 21 21 19 19 20 20 20 19 20 22 24 25 24 24 25 25 25 25 24 24 24 25 24 23 23 25 30 35 37 37 38 40
19 21 22 24 25 26 27 26 20 16 16 17 18 17 18 19 20 18 18 19 22 24 25 25 25 25 25 25 26 27 27 27 26 26 26 26 28 32 36 36 37 40
21 22 24 25 26 27 26 22 17 15 15 16 16 16 17 18 19 19 19 19 22 25 27 28 28 28 28 28 28 29 30 30 29 28 29 29 29 31 33 35 37 39
21 23 25 25 27 25 21 17 17 16 16 16 18 20 20 20 20 21 20 20 23 25 26 28 29 30 31 31 30 30 31 32 32 32 31 30 31 32 31 34 38 39
22 24 25 26 25 21 17 17 18 17 16 17 20 23 24 23 23 23 23 24 26 26 27 29 30 31 32 32 32 32 32 33 34 36 35 33 32 33 33 33 36 40
22 23 25 24 20 17 16 17 17 18 19 20 22 25 25 25 24 23 25 28 30 30 31 31 32 33 34 35 36 35 34 34 33 35 38 38 35 33 34 35 35 38
21 22 23 20 16 15 16 17 18 19 21 22 22 23 24 24 24 24 25 28 31 32 32 32 33 34 35 36 37 36 36 36 35 34 36 38 37 35 35 36 36 36
20 20 19 16 14 15 16 17 19 20 21 21 20 20 21 23 24 25 26 27 30 33 33 33 33 33 34 35 36 37 36 36 36 35 35 35 36 37 36 36 37 37
18 17 15 13 13 15 16 18 19 20 20 20 21 21 21 23 25 25 26 28 30 31 32 32 33 34 36 37 37 38 37 36 36 36 35 34 33 36 38 37 37 37
16 14 13 13 15 16 17 18 19 20 20 20 21 22 22 24 25 25 26 29 30 30 31 32 34 36 38 39 39 39 37 35 34 33 33 34 33 34 38 38 38 38
14 12 12 13 15 17 17 18 18 19 20 21 21 22 23 24 25 26 27 28 29 30 31 32 34 37 39 39 40 41 40 37 35 32 31 32 33 34 36 38 37 37
11 11 12 13 15 16 16 17 19 20 20 21 22 23 24 24 25 26 27 27 27 29 29 30 33 36 38 39 39 40 41 40 39 37 34 32 32 33 35 37 36 35
10 11 12 13 14 15 16 18 20 20 21 22 23 23 24 26 27 28 28 28 28 29 29 29 30 32 35 38 39 39 40 40 40 41 40 37 35 35 35 36 36 35
10 11 12 13 14 15 17 19 20 21 22 23 24 25 26 29 31 32 33 32 29 29 29 30 31 33 34 36 37 38 39 39 41 42 42 40 39 39 38 36 36 36
10 12 13 13 14 16 19 21 21 22 23 23 24 26 29 32 34 35 35 33 30 28 29 30 32 34 36 37 37 37 37 38 40 43 43 41 39 40 43 40 36 36
11 13 14 14 16 18 20 21 22 23 23 23 24 26 28 31 34 34 32 32 30 29 29 30 30 32 35 38 38 37 37 37 39 41 41 42 40 39 43 45 41 37
12 13 15 15 17 19 21 22 24 25 24 23 23 24 26 28 29 29 28 29 30 30 31 32 32 32 34 37 38 37 37 37 38 39 39 41 43 41 40 44 46 42
12 14 15 16 18 20 21 23 26 26 24 21 21 24 27 28 27 26 27 28 29 32 34 35 36 36 36 37 38 36 37 38 38 38 38 38 43 44 40 41 46 46
12 14 16 17 19 20 21 24 28 27 23 23 24 26 28 27 25 25 27 29 31 33 34 34 37 38 35 36 38 36 36 38 38 38 39 38 39 40 38 38 41 43
12 14 16 17 19 20 21 25 29 28 25 25 28 27 26 25 25 25 28 33 32 30 29 31 34 36 32 32 36 35 36 38 38 38 39 39 37 36 36 35 36 38
Wind_Direction
279 283 290 298 304 310 314 318 322 326 329 329 329 329 326 323 318 310 302 295 291 286 278 268 255 254 259 254 247 243 239 237 236 238 239 240 240 238 237 236 232 233
276 280 286 295 301 306 309 313 316 319 323 324 324 323 320 318 315 310 303 295 292 287 283 276 261 251 252 254 251 248 245 240 237 238 238 239 241 238 235 237 235 234
274 278 285 294 299 303 306 309 311 313 316 317 317 316 314 311 308 304 300 295 293 289 284 278 268 257 251 250 251 249 248 245 241 239 238 238 240 241 237 236 236 234
274 279 287 294 298 302 305 307 309 310 311 311 311 310 308 304 300 296 293 292 291 289 285 278 272 265 254 245 246 249 245 246 245 241 238 237 237 239 240 238 236 234
276 283 291 296 299 303 304 306 306 307 307 307 306 305 303 298 292 289 288 287 287 288 286 280 274 269 258 243 239 245 245 242 245 243 240 237 235 235 239 240 239 236
279 287 293 297 300 303 304 305 305 305 305 304 302 300 298 293 286 284 283 282 284 284 283 280 275 270 263 251 242 244 246 244 241 240 242 240 236 234 237 239 240 238
281 289 294 298 301 303 304 304 301 299 299 297 294 293 292 289 285 281 278 278 280 280 278 277 275 271 267 259 250 244 243 244 243 240 239 240 239 237 237 240 241 240
284 290 295 299 302 304 304 301 295 288 288 289 287 286 286 285 283 278 275 275 277 277 276 275 273 271 268 263 256 248 240 238 241 243 240 238 238 239 238 239 241 241
286 292 296 299 302 303 301 297 289 284 283 281 281 281 280 280 281 278 274 273 273 274 275 275 272 271 269 266 262 256 247 240 238 240 242 240 238 240 240 238 238 241
288 293 297 300 301 299 294 288 285 284 282 279 278 280 280 279 280 280 276 273 273 273 273 272 272 272 272 269 265 261 257 249 241 236 238 240 240 239 238 237 238 238
290 295 298 299 298 294 287 285 286 285 282 279 280 282 282 280 279 280 278 276 275 275 273 272 271 270 269 267 265 264 261 256 248 239 236 238 240 240 236 237 239 237
294 297 298 296 294 289 286 287 286 285 283 282 283 283 281 279 278 277 277 279 281 279 276 274 273 271 268 266 265 264 262 260 254 244 238 236 236 238 238 237 239 239
296 298 297 293 290 288 288 288 286 285 285 284 284 282 279 278 278 276 276 279 282 282 277 275 273 271 269 267 265 263 261 260 256 249 242 238 235 235 238 239 238 239
299 298 295 291 289 289 289 287 286 287 287 287 285 282 280 280 279 279 278 278 281 282 280 275 272 269 267 265 264 262 261 259 257 253 246 241 238 235 237 240 239 239
301 298 293 290 290 289 290 290 290 291 290 289 287 284 283 284 283 281 278 278 280 281 279 274 270 267 266 265 263 261 260 258 256 254 248 242 238 237 236 238 239 238
302 296 292 289 287 290 295 296 295 294 293 292 290 288 287 287 286 283 279 279 280 279 278 275 271 268 266 265 263 261 259 255 251 250 248 242 238 236 235 236 237 237
300 294 290 288 289 296 299 299 298 298 297 295 294 292 292 290 287 284 282 280 278 277 276 274 271 270 268 265 262 261 258 254 247 244 244 243 239 236 234 234 235 236
296 293 292 292 295 300 302 302 303 302 300 298 297 296 295 292 288 285 282 280 277 275 273 271 270 271 269 265 261 259 257 255 250 244 241 241 239 236 234 234 233 233
295 295 294 295 298 302 306 307 307 305 304 302 300 298 296 293 290 288 286 282 279 275 272 269 268 267 267 265 262 258 256 254 252 247 242 239 236 232 232 233 232 231
297 297 295 296 301 304 309 310 310 310 309 307 304 302 301 300 298 296 295 290 282 277 273 269 266 265 264 264 262 259 257 254 251 248 244 240 236 230 226 229 231 231
298 296 296 300 303 306 309 311 313 314 312 309 307 305 305 306 305 302 299 293 285 279 276 271 269 267 265 262 260 257 256 252 250 249 245 240 237 233 226 223 226 230
298 297 298 301 304 307 310 312 314 316 314 310 307 306 306 306 305 301 296 291 285 280 275 272 271 269 267 264 260 256 254 251 249 248 245 238 235 235 229 223 220 226
298 299 299 301 306 309 310 313 317 317 316 311 307 305 304 303 301 297 291 287 284 278 275 273 273 274 273 268 262 256 252 249 246 244 242 237 234 234 234 226 220 221
299 300 301 303 307 309 311 317 321 320 316 312 309 307 306 303 299 293 288 285 282 279 277 275 275 280 279 270 263 256 249 245 243 240 238 236 234 235 235 231 222 218
303 302 302 303 307 311 316 320 322 320 317 315 315 312 308 304 299 292 289 288 286 282 279 276 278 284 281 267 259 253 246 242 239 236 235 234 233 233 232 231 226 220
309 306 303 303 306 312 318 322 323 322 320 320 321 317 309 304 301 296 295 296 293 285 280 279 283 288 280 263 254 248 241 239 237 234 233 232 230 229 228 228 226 223
Height
1514 1514 1514 1514 1514 1514 1514 1514 1513 1512 1511 1510 1509 1508 1507 1507 1506 1505 1505 1505 1504 1504 1503 1503 1503 1503 1503 1503 1504 1504 1505 1506 1507 1508 1509 1510 1510 1511 1512 1514 1516 1518
1511 1511 1512 1512 1512 1512 1511 1511 1511 1510 1509 1508 1507 1505 1504 1504 1503 1502 1502 1501 1501 1501 1500 1500 1499 1499 1500 1500 1500 1500 1501 1502 1503 1504 1505 1506 1507 1507 1508 1509 1511 1514
1509 1509 1509 1509 1509 1508 1508 1508 1508 1507 1506 1505 1504 1503 1502 1501 1499 1498 1498 1497 1497 1497 1497 1497 1496 1496 1496 1496 1497 1497 1497 1498 1499 1500 1501 1502 1503 1503 1504 1506 1507 1508
1506 1506 1506 1506 1505 1505 1505 1504 1504 1503 1503 1502 1501 1500 1499 1497 1496 1494 1494 1493 1492 1492 1492 1493 1492 1492 1492 1492 1493 1493 1493 1494 1495 1496 1497 1497 1498 1499 1500 1502 1502 1504
1503 1503 1502 1502 1502 1501 1501 1500 1500 1499 1498 1498 1497 1496 1495 1494 1492 1491 1490 1489 1488 1488 1488 1488 1488 1488 1488 1488 1488 1489 1489 1490 1491 1492 1493 1493 1494 1495 1496 1497 1498 1499
1500 1500 1499 1499 1498 1498 1497 1496 1495 1494 1493 1493 1492 1492 1491 1490 1489 1487 1486 1485 1485 1484 1483 1483 1483 1483 1484 1484 1484 1484 1485 1486 1486 1488 1489 1489 1490 1491 1492 1493 1493 1494
1498 1497 1497 1496 1495 1494 1493 1492 1491 1490 1489 1488 1487 1487 1486 1486 1485 1484 1482 1481 1480 1480 1479 1479 1478 1478 1479 1479 1479 1479 1480 1481 1482 1483 1484 1485 1486 1487 1487 1488 1488 1489
1495 1494 1494 1493 1492 1491 1490 1489 1488 1487 1486 1485 1483 1483 1482 1481 1480 1479 1479 1477 1476 1476 1475 1474 1474 1474 1474 1474 1474 1474 1475 1476 1477 1478 1479 1480 1481 1482 1483 1484 1484 1484
1492 1492 1491 1490 1489 1488 1487 1486 1485 1484 1483 1482 1480 1479 1478 1477 1476 1475 1474 1473 1472 1471 1470 1470 1469 1469 1468 1469 1469 1469 1470 1470 1471 1473 1474 1474 1476 1476 1478 1479 1480 1480
1490 1489 1488 1487 1486 1485 1484 1483 1482 1481 1480 1479 1477 1475 1474 1473 1472 1471 1470 1469 1468 1466 1465 1465 1464 1463 1463 1463 1463 1464 1464 1465 1466 1467 1468 1469 1470 1471 1473 1474 1475 1475
1487 1486 1485 1484 1483 1482 1481 1480 1479 1478 1477 1475 1473 1471 1470 1469 1468 1466 1465 1464 1463 1462 1461 1459 1459 1458 1458 1457 1457 1458 1458 1459 1460 1461 1461 1463 1464 1465 1466 1468 1469 1470
1484 1483 1482 1481 1480 1479 1478 1477 1476 1474 1473 1471 1469 1467 1466 1465 1463 1462 1461 1459 1457 1456 1455 1454 1453 1452 1452 1451 1451 1452 1452 1452 1453 1455 1456 1457 1458 1459 1460 1462 1463 1464
1480 1479 1478 1477 1476 1475 1474 1473 1472 1470 1468 1467 1465 1463 1461 1460 1458 1457 1455 1453 1452 1450 1449 1448 1447 1446 1445 1445 1445 1445 1446 1446 1447 1448 1450 1451 1452 1453 1454 1455 1456 1458
1477 1476 1475 1474 1473 1472 1471 1469 1468 1466 1464 1463 1461 1459 1457 1455 1453 1451 1450 1448 1446 1445 1443 1442 1441 1440 1439 1439 1439 1439 1440 1440 1441 1442 1443 1445 1446 1447 1448 1449 1450 1451
1473 1472 1471 1471 1470 1469 1467 1466 1464 1462 1460 1459 1457 1454 1452 1450 1448 1446 1444 1442 1441 1439 1437 1436 1435 1433 1433 1433 1433 1434 1434 1435 1435 1436 1437 1438 1440 1442 1443 1443 1444 1445
1470 1469 1469 1468 1467 1465 1464 1462 1461 1459 1456 1454 1452 1450 1448 1445 1443 1441 1439 1437 1435 1433 1431 1430 1428 1426 1426 1427 1427 1428 1429 1430 1430 1431 1432 1433 1434 1436 1437 1438 1439 1440
1467 1467 1466 1465 1463 1462 1461 1459 1457 1455 1452 1450 1447 1445 1443 1441 1438 1436 1434 1432 1429 1427 1425 1423 1421 1419 1419 1420 1421 1422 1423 1424 1425 1426 1427 1427 1428 1430 1431 1432 1434 1435
1465 1464 1463 1462 1460 1459 1458 1456 1454 1451 1448 1445 1443 1440 1438 1436 1433 1431 1428 1426 1424 1421 1419 1417 1415 1413 1413 1413 1414 1415 1416 1417 1419 1420 1421 1422 1423 1424 1426 1427 1429 1430
1462 1461 1460 1459 1457 1456 1454 1453 1451 1447 1444 1441 1438 1436 1433 1430 1428 1425 1422 1420 1418 1415 1413 1411 1409 1407 1407 1407 1407 1408 1410 1411 1412 1412 1413 1415 1417 1418 1420 1422 1423 1425
1459 1458 1457 1456 1454 1453 1452 1450 1447 1443 1440 1437 1433 1430 1427 1424 1421 1418 1415 1413 1411 1409 1406 1404 1402 1401 1401 1401 1401 1402 1403 1404 1405 1405 1406 1407 1409 1411 1414 1416 1418 1419
1457 1456 1454 1453 1452 1450 1449 1446 1443 1439 1435 1432 1428 1425 1421 1418 1414 1411 1408 1406 1404 1402 1399 1396 1394 1394 1394 1394 1394 1395 1397 1398 1398 1398 1399 1399 1401 1404 1406 1409 1411 1413
1455 1453 1452 1450 1449 1448 1446 1443 1439 1435 1431 1428 1424 1420 1416 1412 1408 1405 1402 1399 1397 1396 1393 1390 1388 1387 1387 1387 1387 1388 1390 1391 1391 1391 1392 1392 1394 1396 1399 1401 1404 1407
1452 1451 1449 1448 1447 1445 1442 1439 1435 1432 1428 1424 1420 1415 1411 1407 1403 1400 1396 1393 1391 1389 1387 1383 1381 1380 1380 1379 1379 1381 1382 1383 1383 1384 1385 1386 1387 1389 1391 1394 1397 1399
1450 1448 1446 1445 1444 1441 1438 1435 1431 1428 1424 1420 1416 1411 1407 1403 1399 1395 1391 1388 1385 1382 1380 1377 1373 1372 1372 1371 1371 1373 1375 1376 1377 1378 1379 1379 1381 1382 1385 1387 1389 1392
1447 1445 1444 1442 1441 1438 1434 1431 1428 1425 1421 1416 1412 1407 1402 1398 1394 1390 1386 1382 1379 1376 1373 1370 1366 1364 1364 1363 1363 1365 1367 1369 1371 1372 1372 1373 1375 1377 1379 1381 1383 1387
1444 1443 1441 1440 1437 1434 1431 1428 1425 1421 1416 1412 1407 1402 1398 1394 1390 1385 1380 1375 1373 1370 1366 1363 1360 1357 1356 1356 1356 1357 1359 1362 1364 1365 1366 1368 1371 1373 1375 1376 1379 1382